Location: Albany
(35.0170°S, 117.8920°E)
Time: 02:46:12
(UTC+08:00)

N. Korean satellite - Pass Details

Date: 03 December 2020
Orbit: 453 x 502 km, 97.2° (Epoch: 16 January)

Event Time Altitude Azimuth Distance (km) Brightness Sun altitude
Rises 03:46:57 0° 58° (ENE) 2,599 10.6 -11.3°
Reaches altitude 10° 03:50:17 10° 92° (E) 1,721 10.2 -10.7°
Maximum altitude 03:51:34 12° 112° (ESE) 1,627 10.6 -10.5°
Drops below altitude 10° 03:52:52 10° 132° (SE) 1,724 11.0 -10.3°
Sets 03:56:13 0° 165° (SSE) 2,609 11.1 -9.7°
